Iowa City, IA

1:48 PM CST on December 05, 2019 (GMT -0600)
Iowa City Municipal

Weather History for KIOW - October, 2019

Change the Weather History Date:

Wednesday, October 9, 2019

  Actual Average Record
Temperature  
Mean Temperature 59 °F 54 °F  
Max Temperature 71 °F 66 °F 87 °F (2010)
Min Temperature 46 °F 43 °F 25 °F (2000)
Degree Days  
Heating Degree Days 6 11  
Month to date heating degree days 67 87  
Since 1 July heating degree days 74 199  
Cooling Degree Days 0 1  
Month to date cooling degree days 18 9  
Year to date cooling degree days 1175 911  
Growing Degree Days 8 (Base 50)    
Moisture  
Dew Point 45 °F    
Average Humidity 63    
Maximum Humidity 86    
Minimum Humidity 40    
Precipitation  
Precipitation T in 0.09 in 1.74 in (1985)
Month to date precipitation 1.41 0.74  
Year to date precipitation 38.38 30.28  
Sea Level Pressure  
Sea Level Pressure 30.05 in    
Wind  
Wind Speed 6 mph (SE)    
Max Wind Speed 18 mph    
Max Gust Speed 26 mph    
Visibility 10 miles    
Events      
T = Trace of Precipitation, MM = Missing Value Source: NWS Daily Summary

Daily Weather History Graph

Daily Weather History Graph

Search for Another Location

Airport or City:

Astronomy

Oct. 09, 2019 Rise Set
Actual Time 7:11 AM CDT 6:34 PM CDT
Civil Twilight 6:43 AM CDT 7:02 PM CDT
Nautical Twilight 6:11 AM CDT 7:34 PM CDT
Astronomical Twilight 5:39 AM CDT 8:06 PM CDT
Moon 5:10 PM CDT (10/9) 2:53 AM CDT (10/9)
Length of Visible Light 12h 19m
Length of Day
11h 23m
Waxing Gibbous, 85% of the Moon is Illuminated
Oct 9
Waxing Gibbous
Oct 13
Full
Oct 21
Last Quarter
Oct 27
New
Nov 4
First Quarter

Hourly Weather History & Observations

Time (CDT) Temp. Dew Point Humidity Pressure Visibility Wind Dir Wind Speed Gust Speed Precip Events Conditions
12:52 AM 51.1 °F 44.1 °F 77% 30.07 in 10.0 mi Calm Calm - N/A   Clear
1:52 AM 50.0 °F 43.0 °F 77% 30.08 in 10.0 mi Calm Calm - N/A   Clear
2:52 AM 48.0 °F 42.1 °F 80% 30.08 in 10.0 mi Calm Calm - N/A   Clear
3:52 AM 46.0 °F 42.1 °F 86% 30.08 in 10.0 mi Calm Calm - N/A   Clear
4:52 AM 46.9 °F 43.0 °F 86% 30.08 in 10.0 mi Calm Calm - N/A   Clear
5:52 AM 48.0 °F 42.1 °F 80% 30.09 in 10.0 mi Calm Calm - N/A   Clear
6:52 AM 48.0 °F 42.1 °F 80% 30.09 in 10.0 mi Calm Calm - N/A   Clear
7:52 AM 48.9 °F 44.1 °F 83% 30.09 in 10.0 mi Calm Calm - N/A   Clear
8:52 AM 54.0 °F 46.0 °F 75% 30.09 in 10.0 mi SE 8.1 mph - N/A   Clear
9:52 AM 60.1 °F 48.0 °F 64% 30.09 in 10.0 mi SSE 9.2 mph - N/A   Clear
10:52 AM 64.9 °F 48.9 °F 56% 30.10 in 10.0 mi SSE 11.5 mph - N/A   Clear
11:52 AM 69.1 °F 46.0 °F 44% 30.08 in 10.0 mi SSE 13.8 mph 24.2 mph N/A   Clear
12:52 PM 70.0 °F 44.1 °F 39% 30.06 in 10.0 mi South 15.0 mph 24.2 mph N/A   Clear
1:52 PM 69.1 °F 46.0 °F 44% 30.04 in 10.0 mi South 8.1 mph - N/A   Clear
2:52 PM 69.1 °F 46.0 °F 44% 30.02 in 10.0 mi SSE 12.7 mph 21.9 mph N/A   Clear
3:52 PM 69.1 °F 45.0 °F 42% 30.02 in 10.0 mi SSE 12.7 mph - N/A   Clear
4:52 PM 66.9 °F 45.0 °F 45% 30.00 in 10.0 mi SE 8.1 mph - N/A   Clear
5:52 PM 64.9 °F 46.0 °F 50% 30.01 in 10.0 mi SE 5.8 mph - N/A   Clear
6:52 PM 62.1 °F 48.0 °F 60% 30.01 in 10.0 mi SE 5.8 mph - N/A   Clear
7:52 PM 63.0 °F 46.9 °F 56% 29.99 in 10.0 mi ESE 8.1 mph - N/A   Partly Cloudy
8:52 PM 64.0 °F 46.0 °F 52% 29.98 in 10.0 mi ESE 10.4 mph - N/A   Clear
9:52 PM 61.0 °F 46.9 °F 60% 29.98 in 10.0 mi ESE 6.9 mph - N/A   Mostly Cloudy
10:52 PM 61.0 °F 46.9 °F 60% 29.99 in 10.0 mi ESE 4.6 mph - N/A   Mostly Cloudy
11:52 PM 60.1 °F 46.9 °F 62% 30.00 in 10.0 mi Calm Calm - N/A   Overcast